GW0235 Weather Reports


time (UTC)temp
C
wind
direction
speed
KPH
gust
KPH
rain 1hr
cm
rain 24hr
cm
rain mn
cm
humidity
%
barometer
mb
20260507151558 11 213 9.7 20.9 0.00 0.08 0.00 67 1016.6
20260507151059 12 220 11.3 20.9 0.00 0.08 0.00 66 1016.6
20260507150600 12 213 8.0 19.3 0.00 0.08 0.00 68 1016.6
20260507150100 12 223 8.0 17.7 0.00 0.08 0.00 68 1016.7
20260507145601 11 228 6.4 17.7 0.00 0.08 0.00 68 1016.7
20260507145100 11 225 8.0 17.7 0.00 0.08 0.00 69 1016.7
20260507144600 11 205 8.0 17.7 0.00 0.08 0.00 70 1016.7
20260507144101 11 217 6.4 16.1 0.00 0.08 0.00 71 1016.6
20260507143600 11 224 6.4 16.1 0.00 0.08 0.00 71 1016.5
20260507143111 11 179 6.4 14.5 0.00 0.08 0.00 72 1016.6
20260507142559 11 197 6.4 14.5 0.00 0.08 0.00 73 1016.5
20260507142100 10 194 8.0 14.5 0.00 0.08 0.00 73 1016.3
20260507141559 10 207 6.4 14.5 0.00 0.08 0.00 74 1016.2
20260507141102 10 232 6.4 12.9 0.00 0.08 0.00 75 1016.2
20260507140600 10 207 3.2 11.3 0.00 0.08 0.00 76 1016.2
20260507140057 9 201 6.4 11.3 0.00 0.08 0.00 77 1016.2
20260507135559 9 232 4.8 11.3 0.00 0.08 0.00 78 1016.3
20260507135100 8 227 3.2 9.7 0.00 0.08 0.00 78 1016.2
20260507134601 8 186 3.2 12.9 0.00 0.08 0.00 78 1016.1
20260507134057 8 205 4.8 14.5 0.00 0.08 0.00 78 1016.2
20260507133601 8 209 6.4 16.1 0.00 0.08 0.00 78 1016.2
20260507133109 8 202 3.2 16.1 0.00 0.08 0.00 78 1015.9
20260507132559 8 209 4.8 16.1 0.00 0.08 0.00 78 1015.9
20260507132059 8 229 8.0 16.1 0.00 0.08 0.00 78 1015.9
20260507131612 8 229 4.8 11.3 0.00 0.08 0.00 77 1016.0
20260507131100 8 213 6.4 14.5 0.00 0.08 0.00 77 1016.1
20260507130558 8 217 8.0 19.3 0.00 0.08 0.00 77 1016.2
20260507130059 8 241 8.0 19.3 0.00 0.08 0.00 76 1016.1
20260507125600 8 221 12.9 19.3 0.00 0.08 0.00 77 1016.1
20260507125100 8 213 9.7 17.7 0.00 0.08 0.00 78 1016.0
20260507124603 8 223 4.8 12.9 0.00 0.08 0.00 78 1016.1
20260507124059 8 250 6.4 14.5 0.00 0.08 0.00 78 1016.1
20260507123600 8 210 6.4 14.5 0.00 0.08 0.00 78 1016.2
20260507123058 8 241 8.0 14.5 0.00 0.08 0.00 78 1016.3
20260507122557 8 238 6.4 14.5 0.00 0.08 0.00 78 1016.3
20260507122102 8 253 6.4 12.9 0.00 0.08 0.00 78 1016.3
20260507121601 8 248 6.4 11.3 0.00 0.08 0.00 78 1016.4
20260507121101 8 247 3.2 9.7 0.00 0.08 0.00 77 1016.3
20260507120559 8 236 1.6 9.7 0.00 0.08 0.00 76 1016.3
20260507120100 8 232 4.8 11.3 0.00 0.08 0.00 77 1016.3
20260507115600 8 221 4.8 12.9 0.00 0.08 0.00 78 1016.3
20260507115101 8 246 4.8 12.9 0.00 0.08 0.00 80 1016.3
20260507114559 7 228 3.2 6.4 0.00 0.08 0.00 81 1016.3
20260507114059 6 224 1.6 6.4 0.00 0.08 0.00 82 1016.4
20260507113601 6 0 0.0 3.2 0.00 0.08 0.00 80 1016.4
20260507113102 6 0 0.0 3.2 0.00 0.08 0.00 80 1016.4
20260507112603 6 0 0.0 3.2 0.00 0.08 0.00 79 1016.4
20260507112104 6 0 0.0 3.2 0.00 0.08 0.00 76 1016.5
20260507111602 7 0 0.0 3.2 0.00 0.08 0.00 77 1016.5
20260507111100 7 0 0.0 1.6 0.00 0.08 0.00 76 1016.5
20260507110600 7 0 0.0 1.6 0.00 0.08 0.00 76 1016.6
20260507110059 8 0 0.0 1.6 0.00 0.08 0.00 75 1016.5
20260507105600 8 0 0.0 3.2 0.00 0.08 0.00 74 1016.4
20260507105100 8 0 0.0 3.2 0.00 0.08 0.00 74 1016.4
20260507104601 8 0 0.0 3.2 0.00 0.08 0.00 74 1016.4
20260507104100 8 202 0.0 6.4 0.00 0.08 0.00 74 1016.2
20260507103601 9 202 1.6 8.0 0.00 0.08 0.00 74 1016.2
20260507103100 9 227 3.2 8.0 0.00 0.08 0.00 73 1016.1
20260507102559 9 190 1.6 6.4 0.00 0.08 0.00 73 1016.2
20260507102104 9 190 1.6 6.4 0.00 0.08 0.00 72 1016.3
20260507101559 10 194 3.2 8.0 0.00 0.08 0.00 72 1016.4
20260507101058 10 219 3.2 8.0 0.00 0.08 0.00 72 1016.4
20260507100600 10 225 3.2 8.0 0.00 0.08 0.00 71 1016.5
20260507100058 10 213 3.2 6.4 0.00 0.08 0.00 71 1016.4
20260507095557 10 209 3.2 9.7 0.00 0.08 0.00 71 1016.5
20260507095100 10 192 3.2 9.7 0.00 0.08 0.00 70 1016.4
20260507094559 10 230 3.2 9.7 0.00 0.08 0.00 71 1016.5
20260507094103 10 203 3.2 11.3 0.00 0.08 0.00 71 1016.4
20260507093559 10 225 4.8 11.3 0.00 0.08 0.00 72 1016.3
20260507093111 10 232 4.8 11.3 0.00 0.08 0.00 72 1016.3
20260507092603 10 221 4.8 8.0 0.00 0.08 0.00 73 1016.3
20260507092059 10 229 3.2 8.0 0.00 0.08 0.00 73 1016.4
20260507091600 9 243 1.6 4.8 0.00 0.08 0.00 73 1016.5
20260507091102 10 252 1.6 6.4 0.00 0.08 0.00 72 1016.5
20260507090559 10 252 1.6 8.0 0.00 0.08 0.00 72 1016.5
20260507090101 10 251 1.6 8.0 0.00 0.08 0.00 72 1016.5
20260507085557 10 252 1.6 6.4 0.00 0.08 0.00 71 1016.5
20260507085057 10 0 1.6 6.4 0.00 0.08 0.00 71 1016.5
20260507084557 10 252 1.6 11.3 0.00 0.08 0.00 71 1016.5
20260507084057 10 0 1.6 11.3 0.00 0.08 0.00 71 1016.5
20260507083601 10 248 3.2 11.3 0.00 0.08 0.00 71 1016.4
20260507083102 10 247 1.6 9.7 0.00 0.08 0.00 70 1016.4
20260507082601 10 258 3.2 12.9 0.00 0.08 0.00 70 1016.5
20260507082104 10 0 3.2 12.9 0.00 0.08 0.00 68 1016.5
20260507081607 11 228 6.4 12.9 0.00 0.08 0.00 68 1016.5
20260507081059 11 221 8.0 12.9 0.00 0.08 0.00 68 1016.5
20260507080603 11 229 6.4 14.5 0.00 0.08 0.00 67 1016.4
20260507080116 11 185 8.0 14.5 0.00 0.08 0.00 67 1016.4
20260507075559 11 240 6.4 12.9 0.00 0.08 0.00 67 1016.3
20260507075100 11 214 6.4 11.3 0.00 0.08 0.00 67 1016.3
20260507074600 11 235 3.2 14.5 0.00 0.08 0.00 66 1016.4
20260507074059 11 255 4.8 14.5 0.00 0.08 0.00 65 1016.4
20260507073559 11 227 4.8 12.9 0.00 0.08 0.00 65 1016.6
20260507073100 12 219 4.8 12.9 0.00 0.08 0.00 64 1016.4
20260507072601 12 205 4.8 11.3 0.00 0.08 0.00 62 1016.4
20260507072056 12 211 4.8 11.3 0.00 0.08 0.00 61 1016.4
20260507071611 12 214 4.8 11.3 0.00 0.08 0.00 60 1016.4
20260507071102 12 215 6.4 14.5 0.00 0.08 0.00 59 1016.4
20260507070600 12 224 6.4 14.5 0.00 0.08 0.00 58 1016.5
20260507070101 12 215 6.4 14.5 0.00 0.08 0.00 57 1016.6
20260507065600 12 223 4.8 12.9 0.00 0.08 0.08 55 1016.5
20260507065101 12 225 4.8 12.9 0.00 0.08 0.08 53 1016.5
20260507064600 12 211 3.2 16.1 0.00 0.08 0.08 53 1016.5
20260507064059 13 226 6.4 17.7 0.00 0.08 0.08 52 1016.5
20260507063559 13 228 8.0 20.9 0.00 0.08 0.08 52 1016.4
20260507063104 13 202 11.3 20.9 0.00 0.08 0.08 52 1016.5
20260507062558 13 220 6.4 16.1 0.00 0.08 0.08 52 1016.6
20260507062059 13 230 3.2 16.1 0.00 0.08 0.08 51 1016.6
20260507061601 13 205 6.4 16.1 0.00 0.08 0.08 50 1016.7
20260507061057 13 209 8.0 17.7 0.00 0.08 0.08 49 1016.8
20260507060559 13 248 6.4 17.7 0.00 0.08 0.08 49 1016.8
20260507055600 14 320 9.7 25.7 0.00 0.08 0.08 47 1016.8
20260507055100 14 236 12.9 25.7 0.00 0.08 0.08 47 1016.8
20260507054603 14 246 9.7 24.1 0.00 0.08 0.08 47 1016.9
20260507054059 14 248 12.9 24.1 0.00 0.08 0.08 47 1016.9
20260507053600 14 242 9.7 20.9 0.00 0.08 0.08 48 1017.0
20260507053129 14 253 8.0 16.1 0.00 0.08 0.08 49 1017.0
20260507052559 14 261 6.4 16.1 0.00 0.08 0.08 48 1017.0
20260507052100 14 265 6.4 22.5 0.00 0.08 0.08 48 1017.1
20260507051605 14 267 6.4 22.5 0.00 0.08 0.08 47 1017.2
20260507051059 14 259 9.7 22.5 0.00 0.08 0.08 47 1017.1
20260507050600 14 251 8.0 17.7 0.00 0.08 0.08 46 1017.1
20260507050108 15 233 9.7 17.7 0.00 0.08 0.08 45 1017.1
20260507045600 15 244 9.7 17.7 0.00 0.08 0.08 45 1017.0
20260507045058 15 249 9.7 22.5 0.00 0.08 0.08 46 1017.0
20260507044605 15 292 12.9 27.4 0.00 0.08 0.08 45 1017.1
20260507044056 15 277 16.1 27.4 0.00 0.08 0.08 45 1017.1
20260507043559 15 252 16.1 27.4 0.00 0.08 0.08 45 1017.1
20260507043057 15 295 16.1 27.4 0.00 0.08 0.08 46 1017.0
20260507042600 15 269 14.5 30.6 0.00 0.08 0.08 46 1017.0
20260507042103 15 281 12.9 30.6 0.00 0.08 0.08 46 1017.0
20260507041600 15 264 19.3 30.6 0.00 0.08 0.08 46 1016.7
20260507041101 15 298 16.1 24.1 0.00 0.08 0.08 48 1016.6
20260507040559 15 280 6.4 14.5 0.00 0.08 0.08 50 1016.9
20260507040109 15 211 6.4 17.7 0.00 0.08 0.08 50 1016.9
20260507035559 15 283 9.7 17.7 0.00 0.08 0.08 50 1016.7
20260507035058 15 257 8.0 16.1 0.00 0.08 0.08 49 1016.7
20260507034558 16 261 4.8 19.3 0.00 0.08 0.08 48 1016.6
20260507034059 16 262 11.3 19.3 0.00 0.08 0.08 47 1016.7
20260507033600 16 265 8.0 20.9 0.00 0.08 0.08 46 1016.7
20260507033100 16 248 14.5 25.7 0.00 0.08 0.08 46 1016.6
20260507032559 16 279 14.5 25.7 0.00 0.08 0.08 45 1016.5
20260507032057 16 263 14.5 25.7 0.00 0.08 0.08 45 1016.4
20260507031558 17 268 12.9 25.7 0.00 0.08 0.08 44 1016.4
20260507031057 17 272 14.5 29.0 0.00 0.08 0.08 44 1016.4
20260507030556 17 254 16.1 29.0 0.00 0.08 0.08 44 1016.3
20260507030059 17 292 17.7 29.0 0.00 0.08 0.08 44 1016.4
20260507025559 16 278 16.1 29.0 0.00 0.08 0.08 45 1016.3
20260507025059 16 278 16.1 24.1 0.00 0.08 0.08 46 1016.3
20260507024604 16 270 16.1 25.7 0.00 0.08 0.08 47 1016.2
20260507024059 16 285 14.5 25.7 0.00 0.08 0.08 47 1016.2
20260507023602 16 266 14.5 25.7 0.00 0.08 0.08 47 1016.2
20260507023059 17 298 17.7 27.4 0.00 0.08 0.08 46 1016.2
20260507022600 17 286 16.1 27.4 0.00 0.08 0.08 45 1016.2
20260507022100 17 292 19.3 27.4 0.00 0.08 0.08 45 1016.2
20260507021559 17 276 16.1 29.0 0.00 0.08 0.08 45 1016.2
20260507021057 17 300 20.9 30.6 0.00 0.08 0.08 45 1016.3
20260507020604 17 265 20.9 32.2 0.00 0.08 0.08 43 1016.2
20260507020057 17 281 19.3 32.2 0.00 0.08 0.08 43 1016.3
20260507015556 18 286 20.9 32.2 0.00 0.08 0.08 43 1016.3
20260507015056 18 289 19.3 32.2 0.00 0.08 0.08 43 1016.2
20260507014623 18 296 17.7 32.2 0.00 0.08 0.08 43 1016.3
20260507014100 18 272 19.3 33.8 0.00 0.08 0.08 42 1016.3
20260507013603 18 288 19.3 33.8 0.00 0.08 0.08 42 1016.3
20260507013100 18 281 19.3 33.8 0.00 0.08 0.08 43 1016.3
20260507012558 18 267 19.3 33.8 0.00 0.08 0.08 43 1016.2
20260507012057 18 291 19.3 37.0 0.00 0.08 0.08 43 1016.3
20260507011604 18 290 22.5 37.0 0.00 0.08 0.08 42 1016.2
20260507011057 18 283 20.9 35.4 0.00 0.08 0.08 41 1016.2
20260507010600 18 284 14.5 30.6 0.00 0.08 0.08 42 1016.1
20260507010112 18 302 19.3 33.8 0.00 0.08 0.08 42 1016.3
20260507005557 19 312 17.7 33.8 0.00 0.08 0.08 41 1016.3
20260507005100 19 295 20.9 33.8 0.00 0.08 0.08 40 1016.3
20260507004615 19 329 17.7 35.4 0.00 0.08 0.08 40 1016.2
20260507004057 20 317 19.3 35.4 0.00 0.08 0.08 39 1016.1
20260507003557 20 294 22.5 35.4 0.00 0.08 0.08 39 1016.2
20260507003059 20 288 19.3 30.6 0.00 0.08 0.08 39 1016.1
20260507002556 20 296 16.1 29.0 0.00 0.08 0.08 40 1016.2
20260507002058 20 320 16.1 29.0 0.00 0.08 0.08 40 1016.2
20260507001604 20 285 16.1 27.4 0.00 0.08 0.08 40 1016.1
20260507001059 20 295 14.5 25.7 0.00 0.08 0.08 38 1016.2
20260507000556 21 298 16.1 25.7 0.00 0.08 0.08 38 1016.2
20260507000059 21 270 12.9 24.1 0.00 0.08 0.08 37 1016.1
20260506235603 20 288 16.1 25.7 0.00 0.08 0.08 38 1016.2
20260506235100 20 290 16.1 30.6 0.00 0.08 0.08 39 1016.2
20260506234559 20 284 16.1 30.6 0.00 0.08 0.08 39 1016.2
20260506234100 20 287 16.1 29.0 0.00 0.08 0.08 38 1016.2
20260506233559 20 308 19.3 27.4 0.00 0.08 0.08 38 1016.2
20260506233100 21 298 17.7 30.6 0.00 0.08 0.08 37 1016.2
20260506232559 21 273 16.1 32.2 0.00 0.08 0.08 37 1016.2
20260506232059 21 279 17.7 33.8 0.00 0.08 0.08 36 1016.3
20260506231601 21 288 20.9 33.8 0.00 0.08 0.08 35 1016.3
20260506231105 21 302 20.9 33.8 0.00 0.08 0.08 34 1016.2
20260506230557 21 279 22.5 40.2 0.00 0.08 0.08 34 1016.2
20260506225556 22 306 25.7 41.8 0.00 0.08 0.08 32 1015.9
20260506225056 23 269 17.7 38.6 0.00 0.08 0.08 32 1015.9
20260506224558 23 299 24.1 43.5 0.00 0.08 0.08 32 1016.0
20260506224059 23 265 27.4 43.5 0.00 0.08 0.08 31 1016.1
20260506223600 23 296 22.5 43.5 0.00 0.08 0.08 29 1016.0
20260506223100 23 279 22.5 40.2 0.00 0.08 0.08 30 1016.1
20260506222600 23 284 25.7 40.2 0.00 0.08 0.08 31 1016.1
20260506222100 23 296 24.1 40.2 0.00 0.08 0.08 30 1016.1
20260506221558 23 310 20.9 37.0 0.00 0.08 0.08 31 1016.2
20260506221059 23 290 20.9 33.8 0.00 0.08 0.08 31 1016.1
20260506220601 23 271 22.5 32.2 0.00 0.08 0.08 30 1016.1
20260506220059 23 297 22.5 40.2 0.00 0.08 0.08 29 1016.0
20260506215559 23 266 19.3 40.2 0.00 0.08 0.08 31 1016.1
20260506215059 23 282 22.5 41.8 0.00 0.08 0.08 30 1016.0
20260506214605 23 273 20.9 41.8 0.00 0.08 0.08 32 1015.9
20260506214100 23 278 25.7 40.2 0.00 0.08 0.08 32 1016.0
20260506213601 23 311 24.1 40.2 0.00 0.08 0.08 34 1015.9
20260506213059 23 276 25.7 40.2 0.00 0.08 0.08 36 1016.1
20260506212559 22 260 22.5 33.8 0.00 0.08 0.08 39 1016.1
20260506212059 22 302 20.9 41.8 0.00 0.08 0.08 40 1016.1
20260506211605 22 283 17.7 41.8 0.00 0.08 0.08 41 1016.1
20260506211100 22 289 22.5 41.8 0.00 0.08 0.08 39 1016.1
20260506210559 23 278 20.9 35.4 0.00 0.08 0.08 41 1016.1
20260506210059 23 295 19.3 37.0 0.00 0.08 0.08 41 1016.0
20260506205558 23 263 19.3 37.0 0.00 0.08 0.08 42 1016.0
20260506205100 23 288 17.7 38.6 0.00 0.08 0.08 40 1016.0
20260506204600 23 261 20.9 38.6 0.00 0.08 0.08 42 1016.0
20260506204059 23 296 20.9 32.2 0.00 0.08 0.08 40 1016.0
20260506203556 23 275 19.3 33.8 0.00 0.08 0.08 37 1015.9
20260506203059 23 259 16.1 37.0 0.00 0.08 0.08 39 1015.9
20260506202557 23 285 20.9 37.0 0.00 0.08 0.08 38 1015.9
20260506202102 23 294 19.3 35.4 0.00 0.08 0.08 39 1015.9
20260506201559 23 277 22.5 35.4 0.00 0.08 0.08 37 1016.0
20260506201059 23 285 20.9 32.2 0.00 0.08 0.08 37 1015.8
20260506200559 23 322 14.5 30.6 0.00 0.08 0.08 39 1015.9
20260506200105 23 269 16.1 32.2 0.00 0.08 0.08 37 1015.9
20260506195559 23 255 14.5 32.2 0.00 0.08 0.08 33 1015.9
20260506195103 23 273 20.9 32.2 0.00 0.08 0.08 37 1015.9
20260506194607 23 281 12.9 32.2 0.00 0.08 0.08 39 1015.7
20260506194101 23 281 19.3 32.2 0.00 0.08 0.08 36 1015.9
20260506193600 23 279 16.1 30.6 0.00 0.08 0.08 36 1015.8
20260506193101 23 288 16.1 30.6 0.00 0.08 0.08 36 1015.8
20260506192600 23 223 12.9 27.4 0.00 0.08 0.08 36 1015.8
20260506192100 23 267 12.9 27.4 0.00 0.08 0.08 37 1015.9
20260506191609 23 276 14.5 29.0 0.00 0.08 0.08 36 1016.0
20260506191101 23 274 17.7 29.0 0.00 0.08 0.08 36 1016.0
20260506190600 23 302 16.1 29.0 0.00 0.08 0.08 35 1015.9
20260506190058 23 254 16.1 27.4 0.00 0.08 0.08 36 1015.9
20260506185559 23 223 14.5 25.7 0.00 0.08 0.08 35 1016.0
20260506185058 23 238 12.9 24.1 0.00 0.08 0.08 36 1016.0
20260506184558 23 282 14.5 24.1 0.00 0.08 0.08 36 1015.9
20260506184100 23 207 12.9 24.1 0.00 0.08 0.08 37 1015.8
20260506183559 23 223 12.9 24.1 0.00 0.08 0.08 38 1015.9
20260506183120 22 251 11.3 24.1 0.00 0.08 0.08 39 1015.9
20260506182559 22 255 14.5 24.1 0.00 0.08 0.08 38 1015.9
20260506182059 22 219 14.5 25.7 0.00 0.08 0.08 40 1016.0
20260506181602 22 243 14.5 25.7 0.00 0.08 0.08 42 1016.0
20260506181059 22 234 8.0 25.7 0.00 0.08 0.08 43 1016.1
20260506180557 22 229 12.9 25.7 0.00 0.08 0.08 42 1016.1
20260506180115 22 236 12.9 24.1 0.00 0.08 0.08 43 1016.1
20260506175600 21 288 11.3 32.2 0.00 0.08 0.08 44 1016.1
20260506175058 21 243 9.7 32.2 0.00 0.08 0.08 44 1016.2
20260506174556 21 230 16.1 32.2 0.00 0.08 0.08 43 1016.2
20260506174056 21 266 9.7 20.9 0.00 0.08 0.08 44 1016.2
20260506173556 21 203 11.3 24.1 0.08 0.08 0.08 43 1016.2
20260506173133 21 236 12.9 24.1 0.08 0.08 0.08 44 1016.3
20260506172557 21 247 11.3 24.1 0.08 0.08 0.08 46 1016.3
20260506172104 20 251 14.5 29.0 0.08 0.08 0.08 44 1016.3
20260506171557 20 273 11.3 29.0 0.08 0.08 0.08 44 1016.4
20260506171057 20 235 11.3 30.6 0.08 0.08 0.08 43 1016.4
20260506170558 20 254 14.5 30.6 0.08 0.08 0.08 44 1016.3
20260506165557 20 254 14.5 29.0 0.08 0.08 0.08 45 1016.2
20260506165057 19 265 14.5 24.1 0.08 0.08 0.08 45 1016.2
20260506164558 19 220 14.5 27.4 0.08 0.08 0.08 46 1016.1
20260506164056 19 233 12.9 27.4 0.08 0.08 0.08 48 1016.2
20260506163559 19 242 12.9 27.4 0.00 0.00 0.00 48 1016.2
20260506163104 19 232 12.9 24.1 0.00 0.00 0.00 48 1016.1
20260506162600 18 221 9.7 22.5 0.00 0.00 0.00 49 1016.0
20260506162056 18 256 14.5 27.4 0.00 0.00 0.00 50 1016.0
20260506161559 18 259 12.9 27.4 0.00 0.00 0.00 50 1016.0
20260506161055 18 219 12.9 27.4 0.00 0.00 0.00 51 1016.0
20260506160557 18 256 12.9 27.4 0.00 0.00 0.00 52 1016.0
20260506160057 17 219 16.1 27.4 0.00 0.00 0.00 51 1016.1
20260506155556 17 227 11.3 25.7 0.00 0.00 0.00 53 1016.1
20260506155056 17 232 11.3 25.7 0.00 0.00 0.00 54 1016.1
20260506154559 17 206 14.5 25.7 0.00 0.00 0.00 54 1016.2
20260506154057 17 242 12.9 25.7 0.00 0.00 0.00 57 1016.3
20260506153601 17 221 12.9 24.1 0.00 0.00 0.00 56 1016.2
20260506153059 17 217 11.3 22.5 0.00 0.00 0.00 58 1016.1
20260506152556 17 200 11.3 22.5 0.00 0.00 0.00 57 1016.2
20260506152056 17 227 11.3 22.5 0.00 0.00 0.00 58 1016.2